CW9206 Weather Reports


Display with metric or nautical units.
time (UTC)temp
F
wind
direction
speed
MPH
gust
MPH
rain 1hr
in
rain 24hr
in
rain mn
in
humidity
%
barometer
mb
20260904045746 63 218 0.0 0.0 0.00 0.00 0.00 8 1012.4
20260904045246 63 218 0.0 0.0 0.00 0.00 0.00 8 1012.4
20260904044746 63 218 0.0 0.0 0.00 0.00 0.00 8 1012.4
20260904044245 63 218 0.0 0.0 0.00 0.00 0.00 8 1012.3
20260904043746 63 218 0.0 0.0 0.00 0.00 0.00 9 1012.3
20260904043245 63 218 0.0 0.0 0.00 0.00 0.00 9 1012.3
20260904042745 64 218 0.0 0.0 0.00 0.00 0.00 9 1012.2
20260904042245 64 218 0.0 0.0 0.00 0.00 0.00 9 1012.2
20260904041746 64 218 0.0 0.0 0.00 0.00 0.00 10 1012.2
20260904040745 64 218 0.0 0.0 0.00 0.00 0.00 11 1012.1
20260904035746 64 218 0.0 0.0 0.00 0.00 0.00 12 1012.1
20260904035246 64 218 0.0 0.0 0.00 0.00 0.00 12 1012.0
20260904034745 64 218 0.0 0.0 0.00 0.00 0.00 13 1011.8
20260904034245 64 218 0.0 0.0 0.00 0.00 0.00 14 1011.9
20260904033245 64 218 0.0 0.0 0.00 0.00 0.00 16 1011.8
20260904032245 65 218 0.0 0.0 0.00 0.00 0.00 19 1011.7
20260904031745 65 218 0.0 0.0 0.00 0.00 0.00 21 1011.6
20260904031245 65 218 0.0 0.0 0.00 0.00 0.00 22 1011.5
20260904025245 67 218 0.0 0.0 0.00 0.00 0.00 28 1011.3
20260904024745 67 218 0.0 0.0 0.00 0.00 0.00 30 1011.2
20260904024244 67 218 0.0 0.0 0.00 0.00 0.00 31 1011.2
20260904023745 68 218 0.0 0.0 0.00 0.00 0.00 32 1011.2
20260904023245 68 218 0.0 0.0 0.00 0.00 0.00 33 1011.2
20260904022744 68 218 0.0 0.0 0.00 0.00 0.00 34 1011.1
20260904022244 69 218 0.0 0.0 0.00 0.00 0.00 35 1011.2
20260904021745 69 218 0.0 0.0 0.00 0.00 0.00 36 1011.1
20260904021244 69 218 0.0 0.0 0.00 0.00 0.00 36 1011.2
20260904020745 70 218 0.0 0.0 0.00 0.00 0.00 37 1011.2
20260904020244 70 218 0.0 0.0 0.00 0.00 0.00 38 1011.2
20260904015744 71 218 0.0 0.0 0.00 0.00 0.00 38 1011.3
20260904015244 71 218 0.0 0.0 0.00 0.00 0.00 38 1011.2
20260904014744 72 218 0.0 0.0 0.00 0.00 0.00 39 1011.2
20260904014244 72 218 0.0 0.0 0.00 0.00 0.00 40 1011.2
20260904013744 73 218 0.0 0.0 0.00 0.00 0.00 41 1011.1
20260904013244 73 218 0.0 0.0 0.00 0.00 0.00 41 1011.2
20260904012744 73 218 0.0 0.0 0.00 0.00 0.00 41 1011.1
20260904012243 74 218 0.0 0.0 0.00 0.00 0.00 41 1011.0
20260904011243 74 218 0.0 0.0 0.00 0.00 0.00 42 1011.1
20260904010243 74 218 0.0 0.0 0.00 0.00 0.00 43 1011.0
20260904005743 75 218 0.0 0.0 0.00 0.00 0.00 43 1011.1
20260904005243 75 218 0.0 0.0 0.00 0.00 0.00 43 1011.0
20260904004743 76 218 0.0 0.0 0.00 0.00 0.00 43 1011.1
20260904004243 76 218 0.0 0.0 0.00 0.00 0.00 42 1011.1
20260904003243 79 218 0.0 0.0 0.00 0.00 0.00 41 1011.1
20260904002743 80 218 0.0 0.0 0.00 0.00 0.00 40 1011.1
20260904002243 80 218 0.0 0.0 0.00 0.00 0.00 40 1011.1
20260904000743 82 218 0.0 0.0 0.00 0.00 0.00 39 1011.1
20260903235743 82 218 0.0 0.0 0.00 0.00 0.00 39 1011.1
20260903235243 82 218 0.0 0.0 0.00 0.00 0.00 38 1011.1
20260903234743 82 218 0.0 0.0 0.00 0.00 0.00 38 1011.1
20260903234242 83 218 0.0 0.0 0.00 0.00 0.00 38 1011.1
20260903233742 82 218 0.0 0.0 0.00 0.00 0.00 38 1011.1
20260903232742 83 218 0.0 0.0 0.00 0.00 0.00 38 1011.2
20260903232242 83 218 0.0 0.0 0.00 0.00 0.00 37 1011.2
20260903231742 83 218 0.0 0.0 0.00 0.00 0.00 37 1011.2
20260903231242 84 218 0.0 0.0 0.00 0.00 0.00 37 1011.2
20260903230742 84 218 0.0 0.0 0.00 0.00 0.00 37 1011.3
20260903230243 84 218 0.0 0.0 0.00 0.00 0.00 37 1011.3
20260903225742 84 218 0.0 0.0 0.00 0.00 0.00 36 1011.5
20260903224242 84 218 0.0 0.0 0.00 0.00 0.00 36 1011.6
20260903223742 84 218 0.0 0.0 0.00 0.00 0.00 36 1011.6
20260903223242 84 218 0.0 0.0 0.00 0.00 0.00 37 1011.6
20260903222742 84 218 0.0 0.0 0.00 0.00 0.00 36 1011.7
20260903222242 84 218 0.0 0.0 0.00 0.00 0.00 36 1011.8
20260903221742 84 218 0.0 0.0 0.00 0.00 0.00 36 1011.9
20260903221242 84 218 0.0 0.0 0.00 0.00 0.00 36 1011.9
20260903220742 85 218 0.0 0.0 0.00 0.00 0.00 35 1011.9
20260903220242 84 218 0.0 0.0 0.00 0.00 0.00 36 1011.9
20260903215241 84 218 0.0 0.0 0.00 0.00 0.00 35 1012.1
20260903214742 84 218 0.0 0.0 0.00 0.00 0.00 35 1012.1
20260903214242 84 218 0.0 0.0 0.00 0.00 0.00 35 1012.2
20260903213741 84 218 0.0 0.0 0.00 0.00 0.00 35 1012.2
20260903213242 84 218 0.0 0.0 0.00 0.00 0.00 36 1012.3
20260903212241 84 218 0.0 0.0 0.00 0.00 0.00 35 1012.3
20260903211741 84 218 0.0 0.0 0.00 0.00 0.00 35 1012.3
20260903211241 84 218 0.0 0.0 0.00 0.00 0.00 35 1012.3
20260903210741 84 218 0.0 0.0 0.00 0.00 0.00 35 1012.3
20260903210241 84 218 0.0 0.0 0.00 0.00 0.00 35 1012.4
20260903205741 84 218 0.0 0.0 0.00 0.00 0.00 34 1012.4
20260903205241 84 218 0.0 0.0 0.00 0.00 0.00 34 1012.3
20260903204741 84 218 0.0 0.0 0.00 0.00 0.00 34 1012.5
20260903203741 84 218 0.0 0.0 0.00 0.00 0.00 34 1012.5
20260903203241 84 218 0.0 0.0 0.00 0.00 0.00 33 1012.5
20260903202740 83 218 0.0 0.0 0.00 0.00 0.00 33 1012.5
20260903202240 83 218 0.0 0.0 0.00 0.00 0.00 33 1012.6
20260903201241 83 218 0.0 0.0 0.00 0.00 0.00 33 1012.6
20260903200240 83 218 0.0 0.0 0.00 0.00 0.00 32 1012.7
20260903195240 84 218 0.0 0.0 0.00 0.00 0.00 31 1012.9
20260903193740 82 218 0.0 0.0 0.00 0.00 0.00 30 1013.0
20260903192740 81 218 0.0 0.0 0.00 0.00 0.00 28 1013.1
20260903191739 80 218 0.0 0.0 0.00 0.00 0.00 27 1013.1
20260903190740 79 218 0.0 0.0 0.00 0.00 0.00 25 1013.2
20260903190309 79 218 0.0 0.0 0.00 0.00 0.00 24 1013.3
20260903185739 78 218 0.0 0.0 0.00 0.00 0.00 23 1013.4
20260903185309 77 218 0.0 0.0 0.00 0.00 0.00 23 1013.4
20260903184739 76 218 0.0 0.0 0.00 0.00 0.00 23 1013.6
20260903184239 76 218 0.0 0.0 0.00 0.00 0.00 22 1013.6
20260903183739 76 218 0.0 0.0 0.00 0.00 0.00 22 1013.6
20260903183239 75 218 0.0 0.0 0.00 0.00 0.00 21 1013.6
20260903182739 75 218 0.0 0.0 0.00 0.00 0.00 21 1013.6
20260903182239 75 218 0.0 0.0 0.00 0.00 0.00 20 1013.7
20260903181739 74 218 0.0 0.0 0.00 0.00 0.00 20 1013.7
20260903181309 74 218 0.0 0.0 0.00 0.00 0.00 19 1013.8
20260903180739 73 218 0.0 0.0 0.00 0.00 0.00 18 1013.8
20260903180309 73 218 0.0 0.0 0.00 0.00 0.00 18 1013.8
20260903175739 72 218 0.0 0.0 0.00 0.00 0.00 17 1013.8
20260903175239 72 218 0.0 0.0 0.00 0.00 0.00 17 1013.8
20260903174809 71 218 0.0 0.0 0.00 0.00 0.00 17 1013.9
20260903173809 70 218 0.0 0.0 0.00 0.00 0.00 16 1014.0
20260903173308 69 218 0.0 0.0 0.00 0.00 0.00 15 1014.0
20260903172809 69 218 0.0 0.0 0.00 0.00 0.00 15 1014.1
20260903172308 68 218 0.0 0.0 0.00 0.00 0.00 15 1014.0
20260903171808 68 218 0.0 0.0 0.00 0.00 0.00 14 1013.9
20260903171309 67 218 0.0 0.0 0.00 0.00 0.00 14 1013.9
20260903170809 67 218 0.0 0.0 0.00 0.00 0.00 13 1013.9
20260903170308 67 218 0.0 0.0 0.00 0.00 0.00 13 1013.9
20260903165808 67 218 0.0 0.0 0.00 0.00 0.00 11 1013.9
20260903164808 66 218 0.0 0.0 0.00 0.00 0.00 8 1014.0
20260903164308 65 218 0.0 0.0 0.00 0.00 0.00 7 1014.1
20260903163808 64 218 0.0 0.0 0.00 0.00 0.00 7 1014.1
20260903162807 63 218 0.0 0.0 0.00 0.00 0.00 6 1014.0
20260903162308 63 218 0.0 0.0 0.00 0.00 0.00 6 1014.1
20260903160307 62 218 0.0 0.0 0.00 0.00 0.00 5 1014.2
20260903155807 62 218 0.0 0.0 0.00 0.00 0.00 5 1014.3
20260903155307 62 218 0.0 0.0 0.00 0.00 0.00 5 1014.4
20260903154807 61 218 0.0 0.0 0.00 0.00 0.00 5 1014.4
20260903154307 61 218 0.0 0.0 0.00 0.00 0.00 5 1014.4
20260903153807 61 218 0.0 0.0 0.00 0.00 0.00 5 1014.4
20260903152807 61 218 0.0 0.0 0.00 0.00 0.00 6 1014.4
20260903152307 60 218 0.0 0.0 0.00 0.00 0.00 6 1014.5
20260903151807 60 218 0.0 0.0 0.00 0.00 0.00 6 1014.5
20260903151307 60 218 0.0 0.0 0.00 0.00 0.00 6 1014.4
20260903150307 60 218 0.0 0.0 0.00 0.00 0.00 7 1014.4
20260903145807 59 218 0.0 0.0 0.00 0.00 0.00 7 1014.5
20260903144807 59 218 0.0 0.0 0.00 0.00 0.00 7 1014.5
20260903144307 59 218 0.0 0.0 0.00 0.00 0.00 7 1014.5
20260903143806 59 218 0.0 0.0 0.00 0.00 0.00 7 1014.5
20260903143307 58 218 0.0 0.0 0.00 0.00 0.00 7 1014.3
20260903142807 58 218 0.0 0.0 0.00 0.00 0.00 7 1014.4
20260903142307 58 218 0.0 0.0 0.00 0.00 0.00 7 1014.2
20260903141806 58 218 0.0 0.0 0.00 0.00 0.00 7 1014.2
20260903141306 57 218 0.0 0.0 0.00 0.00 0.00 7 1014.1
20260903140806 57 218 0.0 0.0 0.00 0.00 0.00 7 1014.1
20260903135806 56 218 0.0 0.0 0.00 0.00 0.00 7 1014.2
20260903135306 56 218 0.0 0.0 0.00 0.00 0.00 7 1014.2
20260903134806 56 218 0.0 0.0 0.00 0.00 0.00 7 1014.1
20260903134305 56 218 0.0 0.0 0.00 0.00 0.00 7 1014.1
20260903133806 55 218 0.0 0.0 0.00 0.00 0.00 7 1014.1
20260903132806 55 218 0.0 0.0 0.00 0.00 0.00 7 1014.2
20260903132306 55 218 0.0 0.0 0.00 0.00 0.00 7 1014.2
20260903131806 55 218 0.0 0.0 0.00 0.00 0.00 7 1014.1
20260903131305 55 218 0.0 0.0 0.00 0.00 0.00 7 1014.2
20260903130305 56 218 0.0 0.0 0.00 0.00 0.00 7 1014.2
20260903125805 56 218 0.0 0.0 0.00 0.00 0.00 7 1014.3
20260903124805 56 218 0.0 0.0 0.00 0.00 0.00 7 1014.1
20260903124305 56 218 0.0 0.0 0.00 0.00 0.00 7 1014.2
20260903123805 56 218 0.0 0.0 0.00 0.00 0.00 7 1014.1
20260903122805 56 218 0.0 0.0 0.00 0.00 0.00 7 1014.1
20260903122306 57 218 0.0 0.0 0.00 0.00 0.00 7 1014.2
20260903121805 57 218 0.0 0.0 0.00 0.00 0.00 7 1014.1
20260903121305 57 218 0.0 0.0 0.00 0.00 0.00 7 1014.2
20260903120805 57 218 0.0 0.0 0.00 0.00 0.00 7 1014.3
20260903115804 57 218 0.0 0.0 0.00 0.00 0.00 7 1014.3
20260903115306 57 218 0.0 0.0 0.00 0.00 0.00 7 1014.4
20260903114805 57 218 0.0 0.0 0.00 0.00 0.00 6 1014.4
20260903113804 57 218 0.0 0.0 0.00 0.00 0.00 7 1014.5
20260903113304 57 218 0.0 0.0 0.00 0.00 0.00 7 1014.5
20260903112804 57 218 0.0 0.0 0.00 0.00 0.00 7 1014.5
20260903111304 58 218 0.0 0.0 0.00 0.00 0.00 6 1014.6
20260903110804 58 218 0.0 0.0 0.00 0.00 0.00 7 1014.6
20260903105804 58 218 0.0 0.0 0.00 0.00 0.00 7 1014.7
20260903104304 59 218 0.0 0.0 0.00 0.00 0.00 7 1014.8
20260903103804 59 218 0.0 0.0 0.00 0.00 0.00 7 1014.8
20260903103303 59 218 0.0 0.0 0.00 0.00 0.00 6 1014.8
20260903102803 59 218 0.0 0.0 0.00 0.00 0.00 6 1014.8
20260903102305 60 218 0.0 0.0 0.00 0.00 0.00 6 1014.8
20260903101803 60 218 0.0 0.0 0.00 0.00 0.00 7 1014.8
20260903101303 60 218 0.0 0.0 0.00 0.00 0.00 7 1014.9
20260903100803 60 218 0.0 0.0 0.00 0.00 0.00 6 1014.8
20260903100303 61 218 0.0 0.0 0.00 0.00 0.00 6 1014.8
20260903095803 61 218 0.0 0.0 0.00 0.00 0.00 6 1014.9
20260903095305 61 218 0.0 0.0 0.00 0.00 0.00 6 1014.9
20260903094803 62 218 0.0 0.0 0.00 0.00 0.00 6 1015.0
20260903093803 62 218 0.0 0.0 0.00 0.00 0.00 6 1015.1
20260903093302 63 218 0.0 0.0 0.00 0.00 0.00 5 1015.1
20260903092803 63 218 0.0 0.0 0.00 0.00 0.00 5 1015.2
20260903092306 63 218 0.0 0.0 0.00 0.00 0.00 5 1015.2
20260903091802 63 218 0.0 0.0 0.00 0.00 0.00 5 1015.2
20260903090302 63 218 0.0 0.0 0.00 0.00 0.00 4 1015.3
20260903085802 63 218 0.0 0.0 0.00 0.00 0.00 4 1015.4
20260903085305 63 218 0.0 0.0 0.00 0.00 0.00 4 1015.4
20260903084802 63 218 0.0 0.0 0.00 0.00 0.00 4 1015.4
20260903084302 63 218 0.0 0.0 0.00 0.00 0.00 4 1015.4
20260903083802 63 218 0.0 0.0 0.00 0.00 0.00 4 1015.5
20260903083302 63 218 0.0 0.0 0.00 0.00 0.00 4 1015.5
20260903082802 63 218 0.0 0.0 0.00 0.00 0.00 4 1015.6
20260903082305 63 218 0.0 0.0 0.00 0.00 0.00 4 1015.5
20260903081802 63 218 0.0 0.0 0.00 0.00 0.00 4 1015.5
20260903081302 63 218 0.0 0.0 0.00 0.00 0.00 4 1015.5
20260903080802 63 218 0.0 0.0 0.00 0.00 0.00 4 1015.6
20260903080302 63 218 0.0 0.0 0.00 0.00 0.00 4 1015.6
20260903075301 62 218 0.0 0.0 0.00 0.00 0.00 4 1015.6
20260903074801 62 218 0.0 0.0 0.00 0.00 0.00 4 1015.7
20260903074302 62 218 0.0 0.0 0.00 0.00 0.00 4 1015.9
20260903073801 62 218 0.0 0.0 0.00 0.00 0.00 4 1015.8
20260903073301 62 218 0.0 0.0 0.00 0.00 0.00 4 1015.8
20260903072801 62 218 0.0 0.0 0.00 0.00 0.00 4 1015.8
20260903072301 62 218 0.0 0.0 0.00 0.00 0.00 4 1015.8
20260903071301 62 218 0.0 0.0 0.00 0.00 0.00 4 1015.9
20260903070301 62 218 0.0 0.0 0.00 0.00 0.00 4 1015.6
20260903065301 62 218 0.0 0.0 0.00 0.00 0.00 4 1015.5
20260903064801 62 218 0.0 0.0 0.00 0.00 0.00 4 1015.4
20260903064301 62 218 0.0 0.0 0.00 0.00 0.00 4 1015.5
20260903063801 62 218 0.0 0.0 0.00 0.00 0.00 4 1015.5
20260903062801 63 218 0.0 0.0 0.00 0.00 0.00 4 1015.5
20260903062301 63 218 0.0 0.0 0.00 0.00 0.00 4 1015.6
20260903061800 63 218 0.0 0.0 0.00 0.00 0.00 4 1015.6
20260903061301 63 218 0.0 0.0 0.00 0.00 0.00 4 1015.5
20260903060301 63 218 0.0 0.0 0.00 0.00 0.00 4 1015.6
20260903055800 63 218 0.0 0.0 0.00 0.00 0.00 5 1015.5
20260903055300 63 218 0.0 0.0 0.00 0.00 0.00 5 1015.5
20260903054800 63 218 0.0 0.0 0.00 0.00 0.00 5 1015.6
20260903054300 63 218 0.0 0.0 0.00 0.00 0.00 6 1015.6
20260903053801 63 218 0.0 0.0 0.00 0.00 0.00 6 1015.6
20260903053300 64 218 0.0 0.0 0.00 0.00 0.00 7 1015.5
20260903052800 64 218 0.0 0.0 0.00 0.00 0.00 7 1015.6
20260903052301 64 218 0.0 0.0 0.00 0.00 0.00 7 1015.6
20260903051800 64 218 0.0 0.0 0.00 0.00 0.00 7 1015.6
20260903051300 64 218 0.0 0.0 0.00 0.00 0.00 8 1015.7